This is the latest recevied weather packets stored in our database for station/object S54A-10. If no packets are shown the sender has not sent any weather packets the latest 10 day(s).
| Time | Temp. | Humidity | Pressure | Rain* | Wind** | Luminosity | Snow |
|---|---|---|---|---|---|---|---|
| 1777294780 | 23.33° C | 33% | 1020.4 hPa | - | - | - | - |
| 1777293880 | 22.78° C | 33% | 1020.5 hPa | - | - | - | - |
| 1777292980 | 22.22° C | 33% | 1020.7 hPa | - | - | - | - |
| 1777292080 | 22.78° C | 33% | 1020.9 hPa | - | - | - | - |
| 1777291180 | 21.67° C | 33% | 1021 hPa | - | - | - | - |
| 1777290280 | 22.22° C | 34% | 1021.3 hPa | - | - | - | - |
| 1777289380 | 21.11° C | 33% | 1021.4 hPa | - | - | - | - |
| 1777288480 | 21.67° C | 34% | 1021.6 hPa | - | - | - | - |
| 1777287580 | 21.11° C | 34% | 1021.8 hPa | - | - | - | - |
| 1777286679 | 19.44° C | 36% | 1021.9 hPa | - | - | - | - |
| 1777285779 | 18.89° C | 36% | 1022.1 hPa | - | - | - | - |
| 1777284879 | 17.78° C | 37% | 1022.4 hPa | - | - | - | - |
| 1777283979 | 17.78° C | 36% | 1022.5 hPa | - | - | - | - |
| 1777283079 | 17.22° C | 37% | 1022.7 hPa | - | - | - | - |
| 1777282179 | 17.22° C | 38% | 1022.9 hPa | - | - | - | - |
| 1777281279 | 16.67° C | 38% | 1023.3 hPa | - | - | - | - |
| 1777280379 | 16.67° C | 37% | 1023.4 hPa | - | - | - | - |
| 1777279479 | 16.67° C | 38% | 1023.6 hPa | - | - | - | - |
| 1777278579 | 16.67° C | 39% | 1023.8 hPa | - | - | - | - |
| 1777277678 | 16.11° C | 40% | 1023.9 hPa | - | - | - | - |
| 1777276778 | 15.56° C | 40% | 1023.9 hPa | - | - | - | - |
| 1777275878 | 15° C | 42% | 1024 hPa | - | - | - | - |
| 1777274978 | 15° C | 44% | 1024.1 hPa | - | - | - | - |
| 1777274078 | 13.89° C | 45% | 1024.2 hPa | - | - | - | - |
| 1777273178 | 13.33° C | 46% | 1024.3 hPa | - | - | - | - |
* Rain since midnight (hover to see other rain measurements)
** Current wind speed in m/s (hover to see current wind gust speed)